Wind_Speed
25 23 21 20 18 15 13 12 11 10 12 12 11 11 12 15 19 23 25 27 28 29 31 33 31 20 17 4 16 21 18 10 7 6 9 13 16 20 21 31 28 20 21 26 30
30 28 26 25 23 21 20 19 16 13 12 13 12 11 10 12 14 17 20 23 24 26 28 31 33 24 19 9 5 10 11 7 9 4 4 10 7 8 13 17 19 18 17 14 13
39 36 34 30 27 26 23 22 22 20 16 15 15 13 11 8 11 13 15 19 22 22 25 27 30 29 32 18 6 7 7 12 7 1 5 6 7 7 10 8 3 1 2 3 3
40 42 40 37 35 33 31 28 26 25 24 21 18 16 16 12 9 10 11 15 18 21 22 25 27 30 32 26 23 13 8 4 5 4 5 5 4 5 3 8 5 2 2 3 4
40 41 40 42 42 40 37 35 32 31 29 26 24 22 19 19 14 10 9 11 13 16 18 21 23 25 26 27 27 21 11 2 1 8 4 3 2 3 3 4 2 8 10 10 8
47 44 41 40 39 41 42 41 39 37 33 33 30 26 23 23 20 16 11 11 13 12 14 15 18 20 22 25 28 24 13 3 4 7 9 6 7 7 8 5 5 5 6 5 2
54 53 50 48 44 42 41 40 41 43 42 38 36 33 29 28 26 22 18 11 12 11 11 11 13 16 18 21 21 25 17 9 5 1 4 5 5 5 3 2 7 7 4 5 7
62 60 57 56 54 50 48 44 43 43 43 43 43 40 35 37 31 27 26 18 16 12 12 8 8 9 12 13 14 16 17 16 11 8 10 12 12 13 12 9 10 11 11 11 12
70 68 67 64 63 59 55 49 47 48 47 47 47 46 42 41 34 32 31 26 22 19 16 12 7 6 5 8 10 8 13 10 12 14 16 19 18 19 18 17 16 16 15 15 14
75 74 73 73 73 69 64 59 56 52 52 50 49 48 46 45 41 39 38 34 29 25 23 19 14 10 5 3 6 7 6 5 5 8 11 10 11 14 14 13 15 14 12 9 11
79 80 80 80 78 76 72 68 64 58 58 53 53 50 48 49 43 45 44 40 34 30 29 24 23 16 10 6 4 4 6 6 4 5 3 3 4 5 8 8 7 6 10 9 8
79 82 84 85 85 85 81 75 74 69 71 66 63 58 53 52 51 49 47 46 43 39 38 32 33 23 18 13 10 8 4 4 6 7 6 4 2 4 2 5 3 5 5 7 6
61 68 79 84 88 89 87 85 80 76 74 77 69 71 64 56 58 55 51 50 47 46 42 40 42 27 26 23 18 15 11 7 6 8 9 8 6 5 8 5 6 3 1 3 5
56 52 57 67 78 88 91 91 87 82 80 86 75 79 69 67 64 62 58 55 53 50 47 45 44 34 34 30 26 22 18 14 11 8 11 11 10 9 8 10 8 8 5 7 9
61 59 55 57 60 70 84 92 91 90 85 88 86 81 77 71 77 67 67 62 56 56 50 47 46 39 41 40 34 31 23 20 18 15 11 14 13 15 11 12 13 13 13 11 13
63 59 63 60 56 53 65 78 87 90 93 95 93 87 82 79 80 78 71 67 65 61 55 56 50 43 42 46 38 36 28 26 22 22 20 16 19 17 15 18 17 14 15 18 16
62 61 61 64 57 46 49 62 71 81 95 98 97 92 88 86 84 82 77 73 68 63 56 57 53 45 47 47 41 40 37 33 31 27 30 20 22 21 18 21 20 19 20 18 17
66 65 62 66 55 55 53 49 51 64 88 94 97 97 93 92 89 87 85 80 76 69 65 63 61 50 48 49 46 50 45 41 40 37 36 25 24 29 25 24 27 26 28 28 27
67 66 66 61 62 57 55 42 45 58 70 85 90 96 98 98 95 91 86 83 81 75 71 66 63 60 55 56 57 53 47 48 45 41 38 31 31 34 33 32 30 33 35 35 36
64 64 66 62 60 60 54 50 54 61 59 77 82 91 99 101 100 93 89 84 81 79 77 71 70 68 63 63 58 55 54 49 45 42 39 37 38 39 39 36 37 39 41 40 39
60 64 66 60 54 53 48 52 59 64 51 63 77 81 96 101 101 98 89 88 84 81 79 75 71 73 72 66 62 61 56 51 49 45 42 41 39 42 41 39 40 40 42 42 44
57 62 59 57 55 50 45 50 61 64 47 54 68 77 90 103 103 98 93 90 87 85 79 74 75 82 72 68 68 65 61 59 56 50 50 47 43 42 41 43 43 43 42 44 46
64 64 63 58 59 58 53 52 55 60 53 52 61 77 88 96 101 99 93 93 91 87 79 78 77 81 79 77 72 66 62 63 58 59 55 51 45 49 46 46 45 46 46 49 48
70 65 63 67 63 63 58 60 56 61 58 47 58 72 83 86 92 96 93 93 91 87 83 86 81 82 78 71 71 70 68 67 65 62 58 54 52 53 50 48 46 48 45 47 51
77 74 70 66 69 69 62 61 65 61 56 53 56 67 73 79 89 95 94 94 91 89 89 84 80 79 77 78 79 78 77 75 70 65 65 61 61 58 55 53 51 51 51 49 51
83 81 83 74 69 68 67 63 69 67 58 58 52 62 67 78 88 92 93 94 90 90 93 86 80 79 78 80 85 82 79 78 74 71 70 66 62 61 59 58 58 58 58 56 57
87 84 84 81 76 73 68 67 69 71 67 60 54 57 63 74 86 88 94 92 89 88 91 86 80 79 74 77 83 87 81 78 76 76 73 68 65 69 66 63 63 65 62 61 62
Wind_Direction
249 246 244 247 255 260 265 272 281 298 313 327 342 5 12 21 19 22 21 28 31 37 37 33 30 33 28 64 178 189 176 165 157 196 228 222 212 218 233 237 249 249 249 262 271
247 248 247 250 248 253 258 265 267 272 288 304 316 326 354 8 11 19 16 21 25 31 38 35 30 27 27 32 212 194 182 142 163 225 190 213 211 229 228 233 239 243 256 263 271
248 248 249 248 248 249 251 259 264 266 266 279 294 303 312 343 354 6 10 13 19 23 35 36 31 30 28 43 65 148 164 150 117 141 133 130 126 131 135 134 108 225 251 257 271
250 249 249 251 252 251 255 251 257 264 268 270 273 284 294 299 324 336 358 0 13 14 25 37 33 25 32 27 38 93 133 132 94 201 153 146 172 186 93 83 94 53 325 275 258
251 251 250 248 249 253 254 253 253 256 260 265 266 269 279 286 290 304 323 341 356 9 18 29 34 31 28 35 44 54 65 327 225 276 259 263 330 292 271 202 222 293 295 270 254
252 250 248 249 250 252 252 252 254 256 256 261 263 265 269 275 279 280 287 312 328 353 5 24 35 26 28 26 39 50 63 29 216 246 259 251 246 257 267 284 291 296 288 288 309
253 251 251 249 246 246 251 253 252 253 256 254 259 260 263 267 269 270 273 282 300 319 341 4 26 38 26 27 28 47 53 37 69 39 233 193 177 184 191 150 117 88 61 60 68
254 256 253 251 249 247 245 244 250 253 252 252 252 256 258 259 260 267 270 270 279 290 305 329 356 32 33 35 29 49 60 57 72 85 91 96 99 104 108 106 100 91 79 69 68
255 253 252 252 251 250 249 245 245 246 249 248 249 249 253 256 258 260 260 263 266 272 282 290 305 347 31 24 28 35 57 62 74 71 76 84 93 97 99 101 95 93 94 96 90
254 255 253 252 251 249 248 247 244 245 245 245 247 248 248 252 253 252 255 258 260 268 271 276 277 280 308 347 12 0 49 53 42 64 70 69 80 91 94 100 103 99 84 80 85
254 251 251 252 251 250 248 244 242 242 243 243 244 246 246 252 252 251 253 255 257 259 263 269 269 265 271 280 307 323 356 344 12 8 50 66 47 61 92 94 105 115 101 90 90
257 254 251 249 249 250 247 245 243 240 242 239 243 245 245 246 250 251 251 255 255 252 255 263 259 256 259 264 274 270 254 304 314 307 321 347 41 79 115 132 139 124 103 100 75
256 256 254 251 247 247 248 245 242 242 241 240 240 242 241 242 244 247 248 250 250 251 251 253 253 253 259 260 262 259 251 241 269 283 294 296 299 303 224 207 198 193 10 27 21
277 268 256 254 251 247 246 246 243 239 239 245 236 242 239 240 244 242 243 245 248 248 249 250 255 250 253 256 255 256 244 247 245 252 275 282 292 283 246 267 272 275 291 303 310
283 285 276 268 252 251 247 244 242 240 236 239 241 238 238 237 240 241 242 241 242 245 246 246 249 247 247 246 247 249 246 239 243 245 257 274 270 275 280 268 275 280 288 283 293
281 281 281 277 271 248 247 246 241 239 237 236 237 236 238 235 238 239 239 241 241 240 242 243 246 246 248 251 248 246 246 247 238 246 241 245 269 273 275 275 272 277 274 281 290
281 281 282 279 279 267 251 244 242 239 237 235 233 235 234 235 235 238 239 239 241 243 244 249 251 247 247 253 253 254 245 241 243 243 249 239 258 256 268 278 282 282 282 279 286
276 277 277 281 282 276 263 251 242 237 238 234 232 231 233 233 233 233 236 236 237 238 236 238 243 243 248 250 248 247 246 244 238 240 244 240 249 258 261 267 277 281 285 288 287
274 272 275 276 276 274 269 261 255 238 237 235 232 229 230 232 232 232 232 234 236 236 238 239 242 240 238 241 243 246 245 245 246 243 242 241 242 254 253 257 263 273 277 281 283
272 270 268 270 268 269 269 263 259 253 233 236 231 230 227 229 231 230 231 231 234 236 237 235 234 239 236 238 242 248 247 249 252 251 248 243 240 244 248 251 256 261 266 271 277
272 269 264 259 263 263 264 261 258 258 242 238 232 229 227 226 229 229 229 231 231 233 235 236 236 239 237 239 241 241 245 248 248 250 249 250 250 249 252 253 254 261 268 276 279
278 270 264 253 258 256 257 256 259 259 256 236 235 226 226 224 224 226 226 229 230 229 232 235 237 240 240 239 241 243 244 246 250 251 250 250 253 254 256 256 258 262 263 270 274
278 273 266 261 258 253 255 254 257 262 258 242 237 228 224 223 222 224 224 226 229 231 231 232 234 239 240 241 242 246 247 248 249 248 253 254 253 256 253 256 258 260 263 266 273
279 267 261 260 253 251 253 251 252 254 259 241 237 231 225 222 221 221 222 225 227 229 228 230 230 234 240 244 244 245 246 247 249 249 251 251 248 251 255 255 259 262 263 266 270
271 266 261 255 250 246 243 246 246 251 255 249 239 237 223 220 219 220 219 223 225 227 229 229 231 233 238 241 242 241 243 245 247 248 251 251 252 256 258 261 263 264 267 267 269
265 260 255 251 249 241 237 238 242 245 248 247 241 242 223 217 216 217 218 222 223 225 229 228 228 231 233 236 243 246 246 248 249 250 252 254 258 261 263 266 266 266 265 266 268
255 249 246 241 239 238 236 232 239 238 242 243 236 239 227 218 215 213 219 221 222 225 229 229 228 231 233 237 241 242 244 248 251 252 253 256 259 263 264 264 265 265 266 268 270
Height
10999 11000 11000 11000 11000 11000 11000 11000 11000 11000 10999 10998 10996 10995 10993 10992 10990 10986 10983 10980 10977 10975 10972 10968 10963 10959 10955 10954 10952 10952 10956 10959 10959 10961 10963 10963 10964 10964 10964 10966 10967 10968 10969 10970 10970
10995 10995 10996 10997 10998 10998 10998 10998 10998 10998 10999 10997 10996 10995 10994 10992 10991 10990 10986 10983 10980 10977 10975 10971 10967 10961 10955 10950 10949 10952 10956 10956 10958 10959 10961 10961 10962 10963 10963 10963 10965 10967 10967 10967 10967
10989 10990 10991 10992 10993 10994 10995 10996 10996 10996 10996 10996 10996 10994 10993 10993 10992 10991 10988 10985 10983 10980 10977 10974 10970 10964 10959 10953 10950 10951 10955 10956 10958 10961 10962 10961 10962 10964 10963 10963 10964 10965 10966 10966 10966
10981 10983 10985 10986 10988 10989 10990 10991 10993 10993 10993 10993 10994 10994 10992 10992 10992 10990 10989 10986 10984 10982 10979 10978 10973 10968 10962 10958 10954 10954 10956 10958 10959 10963 10965 10964 10963 10962 10963 10962 10964 10965 10966 10966 10966
10972 10975 10977 10979 10981 10983 10984 10986 10987 10990 10990 10990 10990 10991 10991 10990 10990 10990 10989 10987 10986 10985 10982 10980 10977 10973 10971 10968 10960 10956 10956 10962 10961 10961 10964 10964 10963 10963 10963 10963 10964 10964 10966 10966 10964
10965 10967 10969 10971 10972 10974 10977 10979 10980 10983 10986 10986 10986 10986 10989 10988 10988 10988 10987 10987 10985 10985 10985 10983 10981 10976 10973 10968 10964 10960 10962 10966 10965 10964 10964 10964 10964 10964 10963 10962 10963 10964 10963 10963 10962
10954 10956 10959 10962 10964 10965 10967 10971 10973 10975 10978 10981 10981 10981 10983 10983 10983 10984 10985 10986 10985 10984 10985 10984 10984 10981 10975 10972 10971 10966 10967 10970 10968 10967 10966 10964 10963 10963 10963 10962 10963 10963 10963 10962 10962
10942 10944 10947 10949 10952 10956 10959 10962 10966 10968 10969 10971 10973 10974 10976 10975 10979 10981 10980 10985 10984 10984 10984 10984 10984 10984 10981 10978 10978 10976 10974 10975 10972 10972 10969 10967 10966 10965 10966 10966 10965 10964 10964 10964 10963
10926 10929 10932 10934 10937 10942 10949 10954 10957 10958 10959 10960 10961 10965 10967 10968 10974 10976 10975 10978 10982 10983 10982 10983 10984 10983 10985 10981 10980 10981 10978 10979 10978 10974 10971 10969 10970 10969 10969 10969 10968 10968 10969 10968 10967
10907 10909 10913 10917 10920 10926 10934 10940 10944 10947 10947 10952 10953 10956 10959 10960 10966 10967 10968 10971 10975 10978 10979 10980 10981 10982 10983 10983 10981 10980 10980 10981 10979 10976 10975 10975 10974 10972 10972 10973 10972 10972 10972 10971 10969
10887 10890 10893 10897 10900 10906 10916 10923 10928 10934 10935 10941 10942 10946 10949 10952 10957 10959 10960 10964 10969 10973 10972 10975 10975 10978 10979 10981 10980 10980 10977 10977 10978 10978 10977 10976 10975 10974 10974 10974 10974 10974 10973 10972 10973
10864 10867 10870 10877 10879 10884 10893 10904 10909 10918 10918 10924 10929 10934 10940 10942 10946 10950 10953 10956 10961 10964 10965 10969 10967 10973 10975 10977 10977 10978 10978 10977 10976 10977 10977 10976 10976 10975 10975 10974 10975 10974 10974 10973 10973
10841 10843 10846 10852 10855 10861 10869 10879 10891 10900 10904 10901 10917 10914 10925 10933 10931 10937 10944 10946 10951 10954 10959 10961 10957 10968 10969 10972 10974 10975 10974 10974 10974 10975 10975 10976 10977 10977 10976 10976 10975 10975 10973 10972 10972
10823 10824 10825 10826 10830 10837 10844 10852 10867 10880 10886 10872 10899 10893 10912 10917 10921 10923 10930 10935 10940 10945 10948 10951 10952 10962 10963 10965 10968 10969 10970 10970 10973 10973 10973 10974 10974 10976 10976 10974 10973 10973 10972 10971 10971
10805 10805 10805 10805 10808 10815 10817 10825 10838 10853 10866 10855 10867 10880 10890 10903 10892 10912 10913 10920 10929 10932 10939 10943 10943 10951 10954 10955 10960 10961 10965 10968 10969 10971 10970 10971 10973 10972 10973 10972 10971 10972 10971 10970 10970
10788 10790 10785 10785 10786 10797 10794 10799 10812 10823 10828 10830 10842 10857 10870 10880 10881 10889 10900 10908 10912 10918 10928 10927 10933 10941 10945 10943 10953 10954 10960 10962 10964 10967 10967 10968 10967 10968 10968 10968 10969 10968 10968 10967 10968
10771 10772 10767 10764 10769 10774 10775 10779 10786 10796 10786 10805 10821 10835 10850 10855 10863 10872 10884 10894 10900 10909 10921 10919 10925 10933 10933 10935 10943 10946 10951 10955 10958 10961 10959 10964 10965 10966 10965 10963 10963 10963 10962 10964 10964
10754 10753 10750 10744 10754 10749 10752 10757 10768 10762 10762 10781 10798 10815 10826 10832 10839 10849 10860 10874 10884 10892 10901 10905 10909 10922 10926 10927 10930 10930 10938 10944 10948 10952 10953 10961 10962 10957 10961 10961 10957 10957 10955 10957 10957
10734 10732 10729 10730 10729 10730 10732 10743 10744 10736 10740 10756 10771 10790 10801 10808 10820 10827 10843 10856 10866 10877 10885 10895 10901 10904 10911 10910 10913 10919 10929 10930 10936 10943 10949 10954 10955 10952 10954 10956 10955 10951 10949 10950 10949
10712 10710 10711 10709 10709 10712 10717 10723 10721 10713 10724 10730 10749 10763 10775 10786 10795 10812 10824 10840 10851 10860 10867 10878 10883 10887 10893 10895 10904 10910 10914 10921 10928 10933 10938 10942 10947 10948 10948 10950 10949 10947 10944 10944 10942
10692 10687 10689 10690 10689 10693 10700 10701 10697 10693 10706 10711 10725 10739 10748 10763 10776 10791 10813 10818 10830 10842 10851 10862 10872 10869 10873 10888 10893 10898 10904 10911 10915 10922 10928 10931 10936 10937 10939 10941 10941 10939 10937 10933 10929
10668 10664 10666 10670 10671 10675 10680 10679 10675 10676 10689 10696 10702 10715 10717 10729 10749 10772 10791 10801 10810 10819 10836 10850 10855 10845 10868 10875 10877 10883 10892 10897 10903 10911 10914 10919 10925 10927 10930 10930 10931 10931 10931 10927 10924
10642 10636 10644 10650 10652 10653 10656 10661 10661 10660 10668 10676 10679 10683 10689 10706 10732 10757 10772 10781 10791 10803 10822 10830 10840 10840 10848 10853 10866 10877 10883 10884 10891 10895 10903 10910 10917 10912 10918 10919 10921 10924 10924 10920 10919
10612 10611 10618 10620 10625 10630 10637 10642 10643 10641 10650 10660 10657 10659 10667 10699 10721 10739 10758 10761 10773 10790 10801 10800 10818 10826 10838 10856 10857 10860 10866 10868 10874 10880 10889 10896 10900 10901 10904 10909 10911 10911 10916 10916 10911
10578 10581 10587 10592 10594 10604 10614 10620 10622 10624 10634 10637 10639 10640 10665 10684 10696 10716 10734 10741 10757 10769 10775 10793 10806 10815 10830 10835 10834 10841 10845 10851 10859 10868 10869 10880 10883 10888 10893 10897 10901 10902 10902 10903 10899
10536 10544 10548 10560 10566 10576 10587 10598 10601 10606 10615 10616 10623 10623 10646 10660 10673 10698 10714 10722 10739 10749 10750 10774 10793 10800 10809 10815 10815 10824 10833 10836 10845 10852 10855 10864 10873 10875 10881 10885 10886 10886 10887 10889 10888
10489 10499 10506 10520 10536 10546 10558 10573 10578 10586 10592 10598 10605 10611 10628 10640 10654 10680 10692 10708 10724 10734 10738 10757 10777 10785 10799 10801 10798 10798 10818 10824 10829 10834 10842 10852 10861 10857 10864 10869 10870 10867 10871 10873 10874